Location: Bauerbach
(50.4985°N, 10.3912°E)
Time: 16:46:34
(UTC+00:00)

CZ-4 R/B - Pass Details

Date: 13 January 2026
Orbit: 676 x 743 km, 98.7° (Epoch: 15 February)

Event Time Altitude Azimuth Distance (km) Brightness Sun altitude
Rises 04:21:52 0° 18° (NNE) 3,085 7.3 -26.7°
Reaches altitude 10° 04:24:09 10° 23° (NNE) 2,173 6.6 -26.3°
Maximum altitude 04:28:50 55° 101° (ESE) 852 4.5 -25.5°
Drops below altitude 10° 04:33:34 10° 180° (S) 2,199 6.4 -24.8°
Sets 04:35:53 0° 184° (S) 3,125 7.2 -24.4°
